Regional Weather Roundup
Issued by NWS

Home | Current Version | Previous Version | Text Only | Print | Product List | Glossary Off
Versions: 1 2 3 4 5 6 7 8 9 10 11 12 13 14 15 16 17 18 19 20 21 22 23 24 25 26 27 28 29 30 31 32 33 34 35 36 37 38 39 40 41 42 43 44 45 46 47 48 49 50

000
ASUS45 KBOU 280307
RWRCO

WEATHER ROUNDUP FOR COLORADO
NATIONAL WEATHER SERVICE DENVER/BOULDER CO
900 PM MDT SUN JUL 27 2014

NOTE: "FAIR" INDICATES FEW OR NO CLOUDS BELOW 12000 FEET WITH NO
SIGNIFICANT WEATHER AND/OR OBSTRUCTIONS TO VISIBILITY.

COZ001>005-013-030-031-280400-
...NORTHWEST COLORADO...

CITY           SKY/WX    TMP DP  RH WIND       PRES   REMARKS
CRAIG          PTCLDY    61  53  75 CALM      30.28R
HAYDEN         MOCLDY    77  37  24 CALM      30.31R
MEEKER         MOCLDY    77  41  27 CALM      30.29S
MOUNT WERNER   NOT AVBL
STEAMBOAT SPGS MOCLDY    71  48  44 SE5       30.34S
WALDEN         PTCLDY    64  46  52 E13       30.46S
$$

COZ006>008-011-280400-
...WEST CENTRAL VALLEYS...

CITY           SKY/WX    TMP DP  RH WIND       PRES   REMARKS
GRAND JUNCTION MOCLDY    81  48  31 SE10      30.18R
MONTROSE       CLOUDY    74  53  48 SE6       30.31R
EAGLE          CLOUDY    75  48  38 E10       30.34R
RIFLE          MOCLDY    81  43  26 SE17      30.21R
DELTA          CLOUDY    79  53  40 E3        30.25S
NUCLA          CLOUDY    73  50  43 W5        30.32R
$$

COZ017>023-064>068-280400-
...SOUTHWEST COLORADO...

CITY           SKY/WX    TMP DP  RH WIND       PRES   REMARKS
DURANGO        LGT RAIN  64  57  78 CALM      30.45R
CORTEZ         LGT RAIN  72  54  53 S22G35    30.38R
PAGOSA SPRINGS CLOUDY    65  50  58 W8        30.50R
TELLURIDE      NOT AVBL
WOLF CREEK PAS NOT AVBL
$$

COZ009-010-012-014-032>034-037-058>063-280400-
...CENTRAL COLORADO...

CITY           SKY/WX    TMP DP  RH WIND       PRES   REMARKS
ASPEN          CLOUDY    67  45  45 SE13      30.45S
BUENA VISTA    CLOUDY    57  53  85 CALM      30.55S
COPPER MTN     MOCLDY    54  43  66 S24       30.79S
BERTHOUD PASS  FAIR      45  32  61 E22       30.85R
COTTONWOOD PAS CLOUDY    55  50  82 W3        30.67F
GUNNISON       CLOUDY    64  46  52 N8        30.51R
KREMMLING      MOCLDY    70  41  35 S3        30.42R
LEADVILLE      CLOUDY    51  48  89 S3        30.66R
MONARCH PASS   FOG       45  43  93 E14       30.90S VSB<1/4
SALIDA         CLOUDY   N/A N/A N/A W6        30.59F
SUNLIGHT       MOCLDY    59  43  55 CALM      30.69S
WILKERSON PASS NOT AVBL
$$

COZ069>075-280400-
...SAN LUIS VALLEY/SANGRE DE CRISTO MOUNTAINS...

CITY           SKY/WX    TMP DP  RH WIND       PRES   REMARKS
ALAMOSA        CLOUDY    64  54  69 S7        30.46R
LA VETA PASS   CLOUDY    52  50  93 E7        30.68S
SAGUACHE       MOCLDY    64  50  59 CALM      30.50S
$$

COZ035-036-038>040-280400-
...NORTHERN COLORADO FRONT RANGE...

CITY           SKY/WX    TMP DP  RH WIND       PRES   REMARKS
DENVER INTL AP CLOUDY    71  57  61 SE12      30.35R THUNDER
DMNS CITY PARK   N/A     72  51  46 S10       30.34R
AURORA         MOCLDY    70  55  60 SE12      30.38R
FRONT RANGE AP NOT AVBL
ERIE MUNI ARPT CLOUDY    75  54  48 S6        30.31R
BOULDER MUN AP MOCLDY    73  59  60 E3        30.32R
CENTENNIAL     MOCLDY    69  53  56 SE12      30.38R
BROOMFIELD     MOCLDY    73  52  46 SW3       30.36R
FORT COLLINS   MOCLDY    73  55  53 NE5       30.30R
LONGMONT       DRIZZLE   73  58  59 W5        30.32R
$$

COZ041-046-047-076>085-087-088-280400-
...PIKES PEAK/PALMER DIVIDE AND SOUTHERN FOOTHILLS...

CITY           SKY/WX    TMP DP  RH WIND       PRES   REMARKS
COLO. SPRINGS  TSTM      66  60  81 E10       30.44R
A. F. ACADEMY  LGT RAIN  64  58  83 W8        30.44R
ELLICOTT       TSTM      64  57  77 SE25G38   30.42R
FALCON         LGT RAIN  60  58  91 E16G22    30.45F
FORT CARSON    TSTM      63  61  94 W21G30    30.41R FOG
LIMON          LGT RAIN  72  59  63 SE13      30.38R
MONUMENT HILL  CLOUDY    61  55  82 S9        30.45F
TRINIDAD       CLOUDY    67  57  70 N3        30.40R THUNDER
$$

COZ042>045-048>051-090-091-280400-
...NORTHEAST COLORADO...

CITY           SKY/WX    TMP DP  RH WIND       PRES   REMARKS
GREELEY ARPT   MOCLDY    70  55  60 SE16      30.30R
AKRON          CLOUDY    74  48  39 E12       30.32R
BURLINGTON     MOCLDY    70  50  49 S8        30.32R
WRAY             N/A     75  48  38 E6        30.29R
STERLING       CLOUDY    79  52  38 E7        30.28R
HOLYOKE        PTCLDY    70  59  68 SE7       30.29R
FORT MORGAN    CLOUDY    76  48  37 SE8       30.32R
$$

COZ086-089-092>099-280400-
...SOUTHEAST COLORADO...

CITY           SKY/WX    TMP DP  RH WIND       PRES   REMARKS
PUEBLO         LGT RAIN  66  63  90 SW9       30.30S
LA JUNTA       CLOUDY    78  62  57 E18       30.27S
LAMAR          CLOUDY    77  60  55 E13       30.27R
SPRINGFIELD      N/A     73  61  65 SE9       30.32R
$$


USA.gov is the U.S. government's official web portal to all federal, state and local government web resources and services.